Lincoln, IL

6:28 PM CST on January 19, 2017 (GMT -0600)
Lincoln

Weather History for KAAA - February, 2014

Change the Weather History Date:

Tuesday, February 18, 2014

  Actual Average (KSPI) Record (KSPI)
Temperature  
Mean Temperature 35 °F -  
Max Temperature 47 °F 42 °F 65 °F (1971)
Min Temperature 23 °F 24 °F -15 °F (1993)
Degree Days  
Heating Degree Days 30    
Moisture  
Dew Point 29 °F    
Average Humidity 71    
Maximum Humidity 89    
Minimum Humidity 49    
Precipitation  
Precipitation 0.42 in - - ()
Sea Level Pressure  
Sea Level Pressure 29.86 in    
Wind  
Wind Speed 8 mph (SSW)    
Max Wind Speed 22 mph    
Max Gust Speed 25 mph    
Visibility 10 miles    
Events      
Averages and records for this station are not official NWS values.
T = Trace of Precipitation, MM = Missing Value Source: NWS Daily Summary

Daily Weather History Graph

Daily Weather History Graph

Search for Another Location

Airport or City:

Trip Planner

Search our weather history database for the weather conditions in past years. The results will help you decide how hot, cold, wet, or windy it might be!

Date:

Astronomy

Feb. 18, 2014 Rise Set
Actual Time 6:46 AM CST 5:36 PM CST
Civil Twilight 6:18 AM CST 6:04 PM CST
Nautical Twilight 5:47 AM CST 6:35 PM CST
Astronomical Twilight 5:15 AM CST 7:07 PM CST
Moon 9:30 PM CST (2/18) 8:18 AM CST (2/18)
Length of Visible Light 11h 45m
Length of Day
10h 50m
Waning Gibbous, 87% of the Moon is Illuminated
Feb 18
Waning Gibbous
Feb 22
Last Quarter
Mar 1
New
Mar 8
First Quarter
Mar 16
Full

Hourly Weather History & Observations

Time (CST) Temp. Windchill Dew Point Humidity Pressure Visibility Wind Dir Wind Speed Gust Speed Precip Events Conditions
12:15 AM 38.1 °F 32.9 °F 30.2 °F 73% 29.96 in 10.0 mi WSW 6.9 mph - 0.01 in   Clear
12:35 AM 37.9 °F 32.7 °F 30.2 °F 74% 29.96 in 10.0 mi West 6.9 mph - 0.01 in   Clear
12:55 AM 37.6 °F 32.3 °F 29.8 °F 74% 29.97 in 10.0 mi West 6.9 mph - 0.01 in   Clear
1:15 AM 37.4 °F 32.1 °F 29.8 °F 74% 29.97 in 10.0 mi West 6.9 mph - N/A   Clear
1:35 AM 37.4 °F 32.1 °F 29.7 °F 74% 29.98 in 10.0 mi WSW 6.9 mph - N/A   Clear
1:55 AM 37.0 °F 31.6 °F 29.3 °F 74% 29.98 in 10.0 mi WSW 6.9 mph - N/A   Clear
2:15 AM 36.9 °F 33.1 °F 29.3 °F 74% 29.99 in 10.0 mi WSW 4.6 mph - 0.01 in   Clear
2:35 AM 34.7 °F 31.8 °F 28.4 °F 78% 29.99 in 10.0 mi SW 3.5 mph - 0.01 in   Clear
2:55 AM 31.6 °F 27.0 °F 27.1 °F 83% 29.99 in 10.0 mi SW 4.6 mph - 0.01 in   Clear
3:15 AM 31.1 °F 26.4 °F 27.0 °F 85% 30.00 in 10.0 mi SW 4.6 mph - N/A   Clear
3:35 AM 31.8 °F 27.3 °F 27.3 °F 83% 30.00 in 10.0 mi SW 4.6 mph - N/A   Clear
3:55 AM 31.8 °F 26.2 °F 27.3 °F 83% 30.01 in 10.0 mi SW 5.8 mph - N/A   Clear
4:15 AM 32.0 °F 27.5 °F 27.1 °F 82% 30.01 in 10.0 mi SW 4.6 mph - N/A   Clear
4:35 AM 30.7 °F 27.3 °F 26.1 °F 83% 30.00 in 10.0 mi SSW 3.5 mph - N/A   Clear
4:55 AM 27.0 °F 21.6 °F 23.0 °F 85% 30.00 in 10.0 mi South 4.6 mph - N/A   Clear
5:15 AM 26.4 °F 22.4 °F 22.8 °F 86% 30.00 in 10.0 mi South 3.5 mph - N/A   Clear
5:35 AM 25.9 °F 19.2 °F 23.0 °F 89% 30.00 in 10.0 mi South 5.8 mph - N/A   Clear
5:55 AM 27.5 °F 23.6 °F 24.3 °F 88% 29.99 in 10.0 mi South 3.5 mph - N/A   Clear
6:15 AM 25.3 °F 18.5 °F 20.8 °F 83% 29.99 in 10.0 mi SSE 5.8 mph - N/A   Clear
6:35 AM 24.8 °F 19.1 °F 21.7 °F 88% 29.99 in 10.0 mi South 4.6 mph - N/A   Clear
6:55 AM 25.0 °F 18.1 °F 21.6 °F 87% 29.99 in 10.0 mi SE 5.8 mph - N/A   Clear
7:15 AM 23.2 °F 14.1 °F 19.8 °F 87% 29.98 in 10.0 mi SSE 8.1 mph - N/A   Clear
7:35 AM 26.6 °F 19.1 °F 21.9 °F 82% 29.97 in 10.0 mi SSE 6.9 mph - N/A   Clear
7:55 AM 31.3 °F 23.3 °F 24.4 °F 76% 29.97 in 10.0 mi South 9.2 mph - N/A   Clear
8:15 AM 32.0 °F 23.6 °F 24.8 °F 75% 29.97 in 10.0 mi South 10.4 mph - N/A   Clear
8:35 AM 32.5 °F 23.7 °F 24.8 °F 73% 29.97 in 10.0 mi South 11.5 mph - N/A   Clear
8:55 AM 33.8 °F 24.8 °F 25.5 °F 72% 29.96 in 10.0 mi South 12.7 mph - N/A   Clear
9:15 AM 34.3 °F 25.0 °F 26.1 °F 72% 29.95 in 10.0 mi South 13.8 mph - N/A   Clear
9:35 AM 35.6 °F 26.2 °F 26.6 °F 70% 29.94 in 10.0 mi South 15.0 mph - 0.01 in   Clear
9:55 AM 37.0 °F 29.3 °F 27.9 °F 69% 29.94 in 10.0 mi South 11.5 mph - 0.03 in   Clear
10:15 AM 40.8 °F 35.6 °F 29.3 °F 64% 29.93 in 10.0 mi South 8.1 mph - 0.02 in   Clear
10:35 AM 41.5 °F 35.0 °F 29.5 °F 62% 29.92 in 10.0 mi South 11.5 mph - 0.07 in   Clear
10:55 AM 41.7 °F 36.1 °F 30.0 °F 63% 29.92 in 10.0 mi South 9.2 mph - 0.10 in   Clear
11:15 AM 43.7 °F 37.7 °F 29.8 °F 58% 29.90 in 10.0 mi South 11.5 mph 17.3 mph 0.04 in   Clear
11:35 AM 42.8 °F 35.4 °F 30.7 °F 62% 29.88 in 10.0 mi South 15.0 mph - 0.10 in   Clear
11:55 AM 42.4 °F 35.0 °F 30.7 °F 63% 29.86 in 10.0 mi South 15.0 mph - 0.15 in   Clear
12:15 PM 42.8 °F 34.8 °F 30.7 °F 62% 29.84 in 10.0 mi South 17.3 mph - 0.04 in   Clear
12:35 PM 42.6 °F 34.3 °F 30.7 °F 63% 29.82 in 10.0 mi South 18.4 mph - 0.08 in   Clear
12:55 PM 44.1 °F 35.9 °F 30.2 °F 58% 29.80 in 10.0 mi South 19.6 mph - 0.11 in   Clear
1:35 PM 44.6 °F 37.4 °F 30.4 °F 57% 29.79 in 10.0 mi South 16.1 mph - 0.01 in   Clear
1:55 PM 45.7 °F 39.1 °F 30.2 °F 55% 29.77 in 10.0 mi South 15.0 mph - 0.01 in   Clear
2:15 PM 45.7 °F 38.6 °F 29.8 °F 54% 29.76 in 10.0 mi South 17.3 mph - N/A   Clear
2:35 PM 46.8 °F - 29.5 °F 51% 29.76 in 10.0 mi South 9.2 mph 17.3 mph N/A   Clear
2:55 PM 47.7 °F - 29.3 °F 49% 29.74 in 10.0 mi South 21.9 mph 25.3 mph N/A   Clear
3:15 PM 46.0 °F 39.0 °F 29.7 °F 53% 29.74 in 10.0 mi South 17.3 mph - N/A   Clear
3:35 PM 45.1 °F 37.9 °F 30.2 °F 56% 29.73 in 10.0 mi South 17.3 mph - N/A   Clear
3:55 PM 45.3 °F 39.0 °F 30.2 °F 56% 29.73 in 10.0 mi South 13.8 mph - N/A   Clear
4:15 PM 45.1 °F 39.1 °F 30.7 °F 57% 29.73 in 10.0 mi South 12.7 mph - N/A   Clear
4:35 PM 44.6 °F 38.4 °F 30.9 °F 59% 29.73 in 10.0 mi South 12.7 mph - N/A   Clear
4:55 PM 44.4 °F 39.0 °F 30.7 °F 59% 29.73 in 10.0 mi South 10.4 mph - N/A   Clear
5:15 PM 43.7 °F 39.1 °F 30.7 °F 60% 29.73 in 10.0 mi South 8.1 mph - N/A   Clear
5:35 PM 43.3 °F 38.1 °F 30.7 °F 61% 29.73 in 10.0 mi South 9.2 mph - N/A   Clear
5:55 PM 42.8 °F 38.6 °F 30.7 °F 62% 29.73 in 10.0 mi SSW 6.9 mph - N/A   Clear
6:15 PM 41.2 °F 38.2 °F 30.9 °F 67% 29.74 in 10.0 mi SSW 4.6 mph - N/A   Clear
6:35 PM 40.8 °F 37.8 °F 31.1 °F 68% 29.74 in 10.0 mi SSW 4.6 mph - N/A   Clear
6:55 PM 40.3 °F 36.3 °F 31.1 °F 70% 29.74 in 10.0 mi South 5.8 mph - N/A   Clear
7:15 PM 40.5 °F 36.5 °F 31.5 °F 70% 29.74 in 10.0 mi SSW 5.8 mph - N/A   Clear
7:35 PM 40.3 °F 35.5 °F 31.6 °F 71% 29.73 in 10.0 mi South 6.9 mph - N/A   Clear
7:55 PM 40.5 °F 36.5 °F 32.0 °F 72% 29.74 in 10.0 mi SSW 5.8 mph - N/A   Clear
8:15 PM 40.5 °F 36.5 °F 32.0 °F 72% 29.74 in 10.0 mi SSW 5.8 mph - N/A   Clear
8:35 PM 40.8 °F 36.9 °F 32.4 °F 72% 29.74 in 10.0 mi SSW 5.8 mph - N/A   Clear
8:55 PM 40.3 °F 36.3 °F 32.5 °F 74% 29.74 in 10.0 mi SSW 5.8 mph - N/A   Clear
9:15 PM 39.7 °F 36.5 °F 32.9 °F 77% 29.73 in 10.0 mi SSW 4.6 mph - N/A   Clear
9:35 PM 40.1 °F 35.3 °F 32.9 °F 75% 29.73 in 10.0 mi SSW 6.9 mph - N/A   Scattered Clouds
9:55 PM 40.5 °F 37.3 °F 32.9 °F 74% 29.73 in 10.0 mi SSW 4.6 mph - N/A   Scattered Clouds
10:15 PM 40.1 °F 38.0 °F 32.7 °F 75% 29.74 in 10.0 mi SW 3.5 mph - N/A   Clear
10:35 PM 39.0 °F 35.7 °F 32.2 °F 76% 29.73 in 10.0 mi SSW 4.6 mph - N/A   Clear
10:55 PM 39.0 °F 35.7 °F 32.0 °F 76% 29.73 in 10.0 mi SW 4.6 mph - N/A   Clear
11:35 PM 39.4 °F 36.1 °F 31.6 °F 74% 29.73 in 10.0 mi SW 4.6 mph - N/A   Clear
11:55 PM 39.7 °F 37.6 °F 31.3 °F 72% 29.74 in 10.0 mi WSW 3.5 mph - N/A   Clear